[[{"header":{"parameterUnit":"m.s-1","parameterCategory":1,"la1":30.2991,"la2":30.254,"lo1":-89.0895,"lo2":-89.0444,"dy":0.0017,"dx":0.0017,"nx":28,"ny":28,"refTime":"2024-08-11T21:00:00:Z","depth":0,"parameterNumber":2,"parameterNumberName":"U-component_of_WINDS"},"data":[0,0,0,0,0,0,0,0,0,0,0,0,0,0,0,0,0,0,0,0,0,0,0,0,0,0,0,0,0,0,0,0,0,0,0,0,0,0,0,0,0,0,0,0,0,0,0,0,0,0,0,0,0,0,0,0,0,0,1.4113,1.4115,0,1.4278,1.4279,1.4281,1.4338,1.4337,1.4337,1.4336,1.4507,1.4512,1.4517,0,0,0,0,0,0,0,0,0,0,0,0,0,1.3848,1.3853,1.4113,1.4115,1.4117,1.4277,1.428,1.4282,1.4338,1.4337,1.4337,1.4336,1.4505,1.4511,1.4517,0,0,0,0,0,0,0,0,0,0,0,0,0,1.3983,1.3854,1.4112,1.4164,1.4171,1.4277,1.428,1.4282,1.4338,1.4337,1.4336,1.4335,1.4503,1.451,1.4518,1.4585,0,0,1.4541,1.4545,0,0,0,0,0,0,0,0,1.3975,1.3993,1.4155,1.4161,1.4168,1.4286,1.4249,1.4384,1.4339,1.4275,1.4336,1.4335,1.4434,1.4447,1.4481,1.4593,1.46,1.4542,1.4547,1.455,1.4552,0,0,0,0,0,0,0,1.3966,1.3986,1.4178,1.4157,1.4165,1.418,1.4198,1.4275,1.4358,1.428,1.4285,1.4303,1.4438,1.4473,1.4485,1.4603,1.4542,1.4549,1.4554,1.4557,1.4778,1.4779,0,0,0,0,0,0,1.3948,1.3978,1.4173,1.4183,1.4067,1.4185,1.4205,1.4249,1.4357,1.4373,1.4304,1.4305,1.446,1.4476,1.4491,1.4576,1.455,1.4557,1.4562,1.4777,1.4778,1.478,0,0,0,0,0,0,1.3942,1.3964,1.4166,1.4082,1.4108,1.4191,1.424,1.4253,1.4288,1.4375,1.439,1.4325,1.446,1.448,1.4561,1.4583,1.4561,1.4568,1.4775,1.4777,1.4779,1.4746,0,0,0,0,0,0,1.3934,1.3962,1.3988,1.4082,1.4113,1.4233,1.4241,1.4257,1.4301,1.4305,1.4399,1.4413,1.4461,1.4549,1.4569,1.4593,1.4574,1.4774,1.4776,1.4778,1.4746,1.4747,1.4748,0,0,0,0,0,1.3924,1.3973,1.3989,1.4012,1.4147,1.4234,1.4252,1.4305,1.4303,1.433,1.4385,1.441,1.4577,1.4557,1.4579,1.4606,1.4773,1.4775,1.4778,1.4746,1.4747,1.4748,0,0,0,0,0,0,1.388,1.3986,1.4005,1.4086,1.415,1.4243,1.4279,1.4305,1.4372,1.4372,1.4436,1.4457,1.4532,1.4578,1.4553,1.4677,1.4676,1.4684,1.4644,1.4646,1.4647,1.4634,1.458,0,0,0,0,0,1.388,1.3941,1.4031,1.4093,1.4124,1.4196,1.4236,1.4271,1.4341,1.4369,1.443,1.4497,1.4565,1.4608,1.4675,1.4753,1.4774,1.4783,1.4784,1.4784,1.4789,1.4833,1.4838,1.4789,1.4789,1.4789,0,0,1.388,1.3945,1.398,1.4086,1.414,1.4202,1.4219,1.4284,1.4331,1.4379,1.4458,1.4506,1.4585,1.4664,1.4702,1.4704,1.4808,1.4788,1.4787,1.4793,1.4837,1.4841,1.4845,1.4791,1.479,1.479,0,0,1.3911,1.3967,1.4025,1.4079,1.416,1.4207,1.4221,1.431,1.4343,1.4424,1.4461,1.4518,1.4633,1.4688,1.473,1.4782,1.4807,1.4802,1.4807,1.4849,1.4852,1.4856,1.4873,1.4879,1.4807,1.4807,1.4807,0,1.3901,1.3996,1.4051,1.4114,1.416,1.4205,1.4264,1.4314,1.4413,1.4443,1.4444,1.4589,1.4646,1.4738,1.475,1.4784,1.4801,1.4791,1.4847,1.4852,1.4856,1.4873,1.488,1.4806,1.4806,1.4806,1.4806,0,1.3978,1.4044,1.408,1.4174,1.4224,1.4284,1.4349,1.4393,1.4424,1.4471,1.4552,1.4621,1.4703,1.4727,1.4759,1.4824,1.4823,1.4835,1.4836,1.4858,1.4876,1.4883,1.4804,1.4805,1.4805,1.4805,0,0,1.3986,1.411,1.4122,1.4165,1.4258,1.431,1.4372,1.4451,1.4487,1.4554,1.4608,1.4704,1.4715,1.4764,1.4802,1.4839,1.4874,1.4847,1.4849,1.4848,1.4949,1.4938,1.4945,1.4891,1.4893,1.4894,1.4942,0,1.4029,1.4142,1.4194,1.4284,1.4344,1.4389,1.4443,1.4506,1.4552,1.461,1.4661,1.4727,1.4738,1.4767,1.4806,1.4861,1.4894,1.4859,1.4942,1.4944,1.4919,1.4954,1.4944,1.4985,1.4949,1.495,1.4951,0,1.4094,1.416,1.4256,1.4341,1.4368,1.4416,1.4492,1.4547,1.462,1.465,1.4704,1.474,1.4808,1.4804,1.4898,1.4872,1.4909,1.4942,1.4945,1.4954,1.4948,1.4963,1.5,1.5006,1.4962,1.4961,1.4961,0,1.4089,1.4202,1.4274,1.4309,1.441,1.4443,1.4487,1.4558,1.4602,1.4669,1.4698,1.4772,1.4812,1.4869,1.4924,1.4917,1.5012,1.5013,1.5039,1.5038,1.5057,1.5054,1.5099,1.5082,1.5082,1.5082,1.5081,0,1.413,1.4187,1.4272,1.4316,1.4381,1.444,1.4502,1.455,1.4613,1.4667,1.471,1.476,1.483,1.4889,1.4933,1.5003,1.5022,1.5048,1.5059,1.5044,1.504,1.5068,1.5067,1.5083,1.5083,1.5083,1.5082,0,1.4135,1.4195,1.4276,1.4365,1.4388,1.4432,1.4509,1.4553,1.46,1.4668,1.4688,1.4762,1.4834,1.4895,1.4989,1.5018,1.5091,1.5104,1.5066,1.5071,1.5093,1.509,1.5157,1.5168,1.5144,1.5144,1.5144,0,1.4157,1.4202,1.4295,1.4334,1.4377,1.444,1.4484,1.4544,1.4589,1.4674,1.4708,1.4783,1.4845,1.4957,1.502,1.5092,1.5107,1.5126,1.5119,1.5101,1.5107,1.5103,1.5107,1.5126,1.5126,1.5126,1.5126,0,1.419,1.4217,1.4279,1.4352,1.4404,1.4465,1.4526,1.4556,1.4627,1.4675,1.4748,1.4797,1.4892,1.4965,1.5044,1.509,1.512,1.5127,1.5137,1.5122,1.5097,1.511,1.5066,1.5125,1.5126,1.5126,1.5126,1.5126,1.4204,1.4245,1.4317,1.4385,1.4437,1.4494,1.4539,1.4592,1.4654,1.4736,1.4768,1.4842,1.4914,1.5022,1.5068,1.5127,1.5132,1.5146,1.5149,1.5152,1.5149,1.5088,1.5142,1.5142,1.5142,1.5142,1.5142,0,1.4237,1.4286,1.4348,1.4432,1.4486,1.4509,1.4578,1.4621,1.4686,1.4749,1.481,1.4893,1.4964,1.5032,1.5107,1.5141,1.5156,1.5158,1.5156,1.5166,1.5141,1.5125,1.5145,1.5145,1.5145,1.5145,1.5145,1.5145,1.4261,1.4332,1.4367,1.4464,1.4513,1.4585,1.4623,1.4675,1.4726,1.4817,1.4876,1.492,1.4985,1.5065,1.5131,1.5149,1.5174,1.5172,1.5194,1.5169,1.5168,1.5167,1.5152,1.5177,1.5177,1.5214,1.5215,1.5215]},{"header":{"parameterUnit":"m.s-1","parameterCategory":1,"la1":30.2991,"la2":30.254,"lo1":-89.0895,"lo2":-89.0444,"dy":0.0017,"dx":0.0017,"nx":28,"ny":28,"refTime":"2024-08-11T21:00:00:Z","depth":0,"parameterNumber":3,"parameterNumberName":"V-component_of_WINDS"},"data":[0,0,0,0,0,0,0,0,0,0,0,0,0,0,0,0,0,0,0,0,0,0,0,0,0,0,0,0,0,0,0,0,0,0,0,0,0,0,0,0,0,0,0,0,0,0,0,0,0,0,0,0,0,0,0,0,0,0,2.9071,2.907,0,2.9027,2.9027,2.9026,2.8978,2.8977,2.8976,2.8976,2.893,2.8929,2.8929,0,0,0,0,0,0,0,0,0,0,0,0,0,2.911,2.911,2.9071,2.907,2.907,2.9027,2.9027,2.9026,2.8978,2.8977,2.8976,2.8975,2.893,2.8929,2.8928,0,0,0,0,0,0,0,0,0,0,0,0,0,2.9083,2.911,2.9071,2.904,2.9037,2.9027,2.9027,2.9026,2.8978,2.8977,2.8976,2.8975,2.893,2.8929,2.8928,2.8944,0,0,2.8926,2.8925,0,0,0,0,0,0,0,0,2.9084,2.9081,2.9045,2.9042,2.9039,2.9007,2.9024,2.8999,2.8978,2.9,2.8976,2.8974,2.8956,2.8953,2.8947,2.8942,2.894,2.8926,2.8925,2.8925,2.8925,0,0,0,0,0,0,0,2.9086,2.9083,2.9053,2.9045,2.9041,2.9028,2.9023,2.9019,2.8985,2.8998,2.8995,2.899,2.8954,2.8948,2.8946,2.894,2.8926,2.8925,2.8924,2.8924,2.8944,2.8945,0,0,0,0,0,0,2.9093,2.9085,2.9055,2.9052,2.9059,2.9029,2.9023,2.9018,2.8985,2.8979,2.8991,2.8988,2.895,2.8947,2.8944,2.8959,2.8925,2.8924,2.8924,2.8943,2.8945,2.8946,0,0,0,0,0,0,2.9094,2.9091,2.9056,2.9067,2.9062,2.9029,2.9024,2.9018,2.9012,2.8979,2.8973,2.8992,2.8949,2.8945,2.8944,2.8957,2.8924,2.8923,2.8942,2.8944,2.8945,2.8991,0,0,0,0,0,0,2.9095,2.9091,2.9097,2.9068,2.9062,2.9058,2.9025,2.9018,2.9011,2.9006,2.8978,2.8972,2.8948,2.8946,2.8944,2.8955,2.8922,2.8941,2.8943,2.8945,2.8989,2.8994,2.8999,0,0,0,0,0,2.9097,2.9112,2.9098,2.9095,2.9069,2.9059,2.9056,2.9028,2.9012,2.9017,2.8996,2.8973,2.8957,2.8946,2.8943,2.8955,2.894,2.8942,2.8945,2.8986,2.8993,2.8999,0,0,0,0,0,0,2.9143,2.9108,2.9092,2.9098,2.9082,2.9051,2.9057,2.9037,2.9025,2.9021,2.8987,2.8981,2.8984,2.8969,2.8959,2.8968,2.8945,2.8947,2.8977,2.8984,2.8989,2.8992,2.8922,0,0,0,0,0,2.9155,2.915,2.9119,2.9128,2.9121,2.9091,2.9085,2.9066,2.9048,2.904,2.9019,2.9002,2.8993,2.8988,2.8978,2.8987,2.8979,2.8993,2.8998,2.9003,2.9005,2.9007,2.9013,2.8954,2.8954,2.8953,0,0,2.9177,2.9157,2.9156,2.9136,2.9122,2.9118,2.9085,2.9082,2.9078,2.904,2.9038,2.9022,2.9001,2.9005,2.9005,2.8993,2.9019,2.9006,2.901,2.9009,2.901,2.9016,2.9021,2.8955,2.8955,2.8955,0,0,2.9216,2.9201,2.9206,2.9192,2.917,2.915,2.9152,2.9124,2.9112,2.911,2.908,2.9075,2.9061,2.9046,2.9037,2.9071,2.9048,2.9069,2.9096,2.9099,2.9103,2.9107,2.9118,2.9123,2.907,2.9071,2.9071,0,2.9246,2.9239,2.9211,2.9209,2.9201,2.9167,2.9171,2.9159,2.9135,2.913,2.9116,2.9097,2.908,2.908,2.9088,2.9082,2.9082,2.9071,2.9105,2.9109,2.9112,2.9122,2.9126,2.9073,2.9073,2.9073,2.9072,0,2.9277,2.9273,2.9279,2.9258,2.925,2.9252,2.9223,2.9219,2.92,2.9181,2.9179,2.9158,2.9142,2.9141,2.9122,2.9138,2.913,2.9112,2.9087,2.9121,2.9129,2.9133,2.9077,2.9076,2.9075,2.9074,0,0,2.9343,2.9306,2.9308,2.9298,2.9272,2.9268,2.9268,2.9253,2.925,2.9235,2.9233,2.9221,2.9204,2.9193,2.9173,2.9176,2.9202,2.9156,2.9155,2.9165,2.9217,2.923,2.9235,2.9188,2.9188,2.9189,2.9218,0,2.9376,2.9374,2.9348,2.9353,2.9348,2.9316,2.9316,2.9299,2.9282,2.9275,2.9255,2.9247,2.9225,2.9219,2.922,2.9199,2.9212,2.9197,2.9185,2.9185,2.919,2.924,2.9254,2.9283,2.9221,2.9222,2.9222,0,2.9414,2.9401,2.9406,2.938,2.9377,2.9377,2.9361,2.9355,2.9336,2.9323,2.9312,2.9289,2.9286,2.9264,2.9259,2.9249,2.9243,2.9232,2.9232,2.9229,2.9205,2.9237,2.9291,2.9295,2.9228,2.9227,2.9227,0,2.9459,2.9444,2.9445,2.9437,2.9407,2.9407,2.9395,2.9374,2.9367,2.9354,2.9348,2.9335,2.9327,2.9316,2.929,2.9276,2.9287,2.9263,2.9275,2.9276,2.9278,2.9278,2.9331,2.9276,2.9276,2.9276,2.9276,0,2.9498,2.9502,2.9465,2.9465,2.9468,2.9439,2.9443,2.9427,2.9409,2.9405,2.9377,2.9373,2.9339,2.9332,2.9311,2.9309,2.9306,2.9295,2.9289,2.9297,2.9298,2.9292,2.9289,2.9277,2.9277,2.9277,2.9277,0,2.9549,2.9525,2.9523,2.9495,2.9488,2.9491,2.9467,2.9465,2.9447,2.9442,2.9439,2.9409,2.9399,2.9372,2.9355,2.9341,2.9345,2.9335,2.9351,2.9347,2.9361,2.936,2.9411,2.9415,2.9359,2.9359,2.936,0,2.9575,2.9577,2.9549,2.9545,2.9534,2.9527,2.952,2.9491,2.9485,2.9463,2.9464,2.9452,2.944,2.9426,2.9402,2.9388,2.9377,2.9396,2.9375,2.9382,2.9376,2.9376,2.9376,2.94,2.9401,2.9401,2.9402,0,2.9623,2.961,2.9601,2.9588,2.9581,2.9569,2.9555,2.9553,2.9521,2.9515,2.9504,2.9496,2.9478,2.9466,2.9449,2.9435,2.9413,2.9409,2.9411,2.9418,2.9428,2.9422,2.9363,2.9408,2.9407,2.9407,2.9406,2.9406,2.9661,2.9661,2.9642,2.9633,2.962,2.9608,2.9605,2.9586,2.9577,2.9562,2.9545,2.9536,2.9516,2.9491,2.9479,2.9471,2.946,2.9463,2.9463,2.9464,2.9467,2.943,2.9468,2.9468,2.9467,2.9467,2.9467,0,2.9706,2.9692,2.9684,2.9666,2.9659,2.9641,2.9624,2.9619,2.9612,2.9596,2.9586,2.9574,2.9562,2.9538,2.9523,2.9522,2.9511,2.9519,2.9518,2.9515,2.9479,2.9478,2.9528,2.9528,2.9528,2.9528,2.9528,2.9527,2.9729,2.9728,2.9714,2.9707,2.9692,2.9684,2.9677,2.9665,2.9652,2.964,2.9631,2.9615,2.9596,2.958,2.9568,2.9561,2.9556,2.9567,2.9557,2.9523,2.9518,2.9512,2.9511,2.9567,2.9567,2.9594,2.9594,2.9594]}]]